����25�N�x�@��C��������Ԃɂ�鑪�茋��,,,,,,,,,,,,,,
,,,,,,,,,,,,,,
�P�@����n�_,,,,,,,,,,,,,,
���C�s�V��i���C�s�V��1-1),,,,,,,,,,,,,,
,,,,,,,,,,,,,,
�Q�@���Ԓl�i�m��l�j������25�N10��8���`����25�N10��30��,,,,,,,,,,,,,,
,,,,,,,,,,,,,,
,�N,��,��,��,SO2,SPM,Ox,CO,NO,NO2,���x,���x,����,����
,,,,,ppm,mg/m3,ppm,ppm,ppm,ppm,��,%,�P�U����,m/s
H01,2013,10,8,1,***,***,***,***,***,***,***,***,***,***
H01,2013,10,8,2,***,***,***,***,***,***,***,***,***,***
H01,2013,10,8,3,***,***,***,***,***,***,***,***,***,***
H01,2013,10,8,4,***,***,***,***,***,***,***,***,***,***
H01,2013,10,8,5,***,***,***,***,***,***,***,***,***,***
H01,2013,10,8,6,***,***,***,***,***,***,***,***,***,***
H01,2013,10,8,7,***,***,***,***,***,***,***,***,***,***
H01,2013,10,8,8,***,***,***,***,***,***,***,***,***,***
H01,2013,10,8,9,***,***,***,***,***,***,***,***,***,***
H01,2013,10,8,10,***,***,***,***,***,***,***,***,***,***
H01,2013,10,8,11,***,***,***,***,***,***,***,***,***,***
H01,2013,10,8,12,***,***,***,***,***,***,***,***,***,***
H01,2013,10,8,13,***,***,***,***,***,***,***,***,***,***
H01,2013,10,8,14,***,***,***,***,***,***,***,***,***,***
H01,2013,10,8,15,***,***,***,***,***,***,28.1,55.7,SSE,3.1
H01,2013,10,8,16,0,0.024,0.02,0.4,0.005,0.014,27.6,60.1,SSE,2.6
H01,2013,10,8,17,0.001,0.014,0.019,0.4,0.003,0.014,27,61,S,2.6
H01,2013,10,8,18,0,0.028,0.016,0.4,0.002,0.016,26.1,68.5,SE,2.8
H01,2013,10,8,19,0.001,0.022,0.017,0.4,0.002,0.014,25.5,74.4,SSE,2.6
H01,2013,10,8,20,0.001,0.032,0.017,0.4,0,0.012,25.3,77.4,SSE,3
H01,2013,10,8,21,0,0.022,0.016,0.4,0.002,0.012,25.4,77.6,SSE,2.7
H01,2013,10,8,22,0,0.026,0.018,0.3,0,0.011,25.2,77.6,SE,2.9
H01,2013,10,8,23,0,0.036,0.017,0.3,0.004,0.012,25.2,77.4,SE,2.6
H01,2013,10,8,24,0,0.025,0.017,0.3,0.006,0.011,25.2,77.9,SSE,2.7
H01,2013,10,9,1,***,0.024,0.017,***,***,***,25.2,78.3,SE,2.4
H01,2013,10,9,2,0.001,0.041,0.02,0.1,***,***,25.2,78,SE,2.9
H01,2013,10,9,3,0,0.038,0.022,0.1,0,0.007,25.2,78.5,SSE,3.8
H01,2013,10,9,4,0,0.037,0.022,0.1,0.001,0.007,24,88,S,2.1
H01,2013,10,9,5,0,0.028,0.022,0.1,0.001,0.009,23.6,91.2,SSE,3.8
H01,2013,10,9,6,0,0.031,0.023,0.1,0.001,0.012,23.7,90.2,SSE,2.6
H01,2013,10,9,7,0,0.039,0.02,0.2,0.003,0.015,24.9,87.3,S,4.1
H01,2013,10,9,8,0.001,0.047,0.021,0.2,0.01,0.017,25.9,81.5,S,4.3
H01,2013,10,9,9,0.001,0.044,0.025,0.2,0.004,0.013,26.1,79.4,SSE,4.8
H01,2013,10,9,10,0.001,0.046,0.029,0.2,0.003,0.011,26.8,75,S,5.6
H01,2013,10,9,11,0.001,0.045,0.031,0.2,0.002,0.011,26.4,78.2,S,5.9
H01,2013,10,9,12,0.001,0.051,0.03,0.2,0.003,0.012,25.4,85.9,S,2.5
H01,2013,10,9,13,0.001,0.043,0.026,0.2,0.003,0.015,24.7,91.2,S,3.2
H01,2013,10,9,14,0,0.031,0.024,0.2,0.003,0.014,24.9,91.8,S,2.2
H01,2013,10,9,15,0.001,0.031,0.016,0.2,0.015,0.021,26.4,84.2,SSW,1.9
H01,2013,10,9,16,0.001,0.026,0.02,0.2,0.009,0.017,26.7,80.4,SSE,1.9
H01,2013,10,9,17,0.002,0.043,0.008,0.3,0.031,0.034,25,86.7,W,0.9
H01,2013,10,9,18,0.004,0.042,0.004,0.4,0.034,0.04,25.1,87.4,WNW,1.5
H01,2013,10,9,19,0.001,0.017,0.018,0.3,0.009,0.021,25.4,79.2,WNW,1.7
H01,2013,10,9,20,0.001,0.016,0.021,0.3,0.003,0.018,25.3,76.6,NW,0.9
H01,2013,10,9,21,0,0.028,0.021,0.3,0.005,0.019,25,74.1,NW,0.6
H01,2013,10,9,22,0,0.02,0.023,0.2,0.002,0.014,24.6,75.2,WNW,1.3
H01,2013,10,9,23,0.001,0.028,0.015,0.3,0.003,0.022,23.8,78.6,ENE,0.6
H01,2013,10,9,24,0.001,0.042,0.003,0.4,0.021,0.032,23.3,83.8,N,0.4
H01,2013,10,10,1,0.001,0.028,0.004,0.3,0.013,0.03,23,84.1,CALM,0
H01,2013,10,10,2,0.001,0.042,0.005,0.3,0.011,0.029,23.6,83.4,NNE,0.9
H01,2013,10,10,3,0.001,0.035,0.014,0.2,0.003,0.023,23.3,81.7,NNE,2
H01,2013,10,10,4,0.002,0.034,0.009,0.2,0.005,0.025,22.8,84.1,NNE,0.6
H01,2013,10,10,5,0.001,0.041,0.003,0.3,0.009,0.027,22.7,86,NE,1.6
H01,2013,10,10,6,0.001,0.029,0.002,0.3,0.021,0.028,22.9,84.4,NE,1.8
H01,2013,10,10,7,0.001,0.037,0.003,0.3,0.026,0.025,23.3,83.1,NE,2.1
H01,2013,10,10,8,0.001,0.032,0.006,0.3,0.021,0.019,24.2,79,NE,3.3
H01,2013,10,10,9,0.001,0.032,0.011,0.3,0.018,0.019,26.4,63.9,ENE,1.7
H01,2013,10,10,10,0.001,0.026,0.015,0.3,0.027,0.023,27.3,62.4,NNW,0.8
H01,2013,10,10,11,0.001,0.028,0.021,0.3,0.024,0.026,28.5,55.8,NNW,1.1
H01,2013,10,10,12,0.002,0.024,0.021,0.3,0.027,0.042,28.8,51.4,NW,1.5
H01,2013,10,10,13,0.01,0.037,0.015,0.5,0.036,0.04,30.3,52.7,WNW,1.8
H01,2013,10,10,14,0.009,0.038,0.013,0.9,0.054,0.048,30.4,48.9,W,2.8
H01,2013,10,10,15,0.01,0.047,0.015,0.8,0.045,0.05,30.3,47.8,NW,2
H01,2013,10,10,16,0.008,0.045,0.015,0.4,0.032,0.043,30.3,51.4,S,0.7
H01,2013,10,10,17,0.008,0.032,0.017,0.4,0.021,0.04,29,58.9,S,1.9
H01,2013,10,10,18,0.002,0.029,0.028,0.3,0.001,0.025,27.5,64.3,S,2.5
H01,2013,10,10,19,0.003,0.031,0.025,0.3,0.002,0.023,26.3,71.2,S,2.5
H01,2013,10,10,20,0.001,0.028,0.027,0.2,0.001,0.02,25.6,74.9,SSE,2.1
H01,2013,10,10,21,0.001,0.039,0.023,0.3,0.001,0.023,25.3,77,SSE,1.7
H01,2013,10,10,22,0.002,0.05,0.024,0.3,0,0.022,25.1,82.1,SSE,2.2
H01,2013,10,10,23,0.001,0.039,0.032,0.2,0,0.017,25.1,79.9,SE,1.9
H01,2013,10,10,24,0.001,0.041,0.021,0.2,0,0.022,24.7,80.8,SSE,1.5
H01,2013,10,11,1,0.001,0.026,0.019,0.2,0,0.023,25.1,77.6,SE,1.9
H01,2013,10,11,2,0.001,0.043,0.025,0.2,0,0.021,25.1,79.1,SSE,2.4
H01,2013,10,11,3,0.001,0.048,0.033,0.2,0,0.015,24.3,82.4,SSE,3.8
H01,2013,10,11,4,0.001,0.041,0.028,0.2,0,0.014,23.9,85,SSE,2.1
H01,2013,10,11,5,0,0.04,0.019,0.2,0.001,0.017,23.8,90.8,SSE,1.8
H01,2013,10,11,6,0,0.032,0.01,0.2,0.003,0.019,24.6,92.1,SSE,2.8
H01,2013,10,11,7,0.001,0.033,0.01,0.2,0.01,0.02,25.3,86.5,S,3.5
H01,2013,10,11,8,0.001,0.021,0.018,0.2,0.008,0.015,27,73.4,SSE,3.1
H01,2013,10,11,9,0.001,0.024,0.021,0.1,0.006,0.011,28.1,62,S,3.8
H01,2013,10,11,10,0.001,0.014,0.024,0.1,0.006,0.01,28.7,61.4,SSE,5.5
H01,2013,10,11,11,0.002,0.02,0.026,0.1,0.005,0.01,29.4,57.3,S,4.5
H01,2013,10,11,12,0.002,0.022,0.027,0.1,0.005,0.011,29.8,56.6,SSE,4.8
H01,2013,10,11,13,0.001,0.035,0.028,0.1,0.006,0.01,30.3,53.8,S,4.1
H01,2013,10,11,14,0.002,0.036,0.029,0.1,0.005,0.009,30.3,54,S,3.9
H01,2013,10,11,15,0.002,0.036,0.027,0.1,0.005,0.011,29.9,57,S,3.9
H01,2013,10,11,16,0.002,0.027,0.024,0.1,0.005,0.012,28.5,61.1,S,4.8
H01,2013,10,11,17,0.001,0.04,0.022,0.1,0.003,0.012,27.5,67.7,S,2.6
H01,2013,10,11,18,0.001,0.029,0.016,0.2,0.005,0.015,26.4,74.9,SSE,2.4
H01,2013,10,11,19,0.001,0.032,0.013,0.2,0.005,0.019,26,77.8,SSE,3.2
H01,2013,10,11,20,0.001,0.027,0.014,0.2,0.003,0.016,26,78.7,SSE,1.9
H01,2013,10,11,21,0.001,0.041,0.011,0.2,0.002,0.018,25.5,82.6,SSE,1.5
H01,2013,10,11,22,0.001,0.026,0.01,0.2,0.002,0.017,25.7,78.6,S,1.6
H01,2013,10,11,23,0.001,0.018,0.007,0.2,0.007,0.021,25.3,79.3,SE,1.1
H01,2013,10,11,24,0.001,0.033,0.004,0.2,0.007,0.023,24.9,80.9,SSE,0.6
H01,2013,10,12,1,0.001,0.018,0.006,0.2,0.008,0.021,25.1,78.1,SSE,1.8
H01,2013,10,12,2,0.001,0.029,0.004,0.2,0.017,0.021,24.7,78.3,ESE,0.3
H01,2013,10,12,3,0.004,0.033,0.006,0.7,0.012,0.021,25.9,66.9,W,3.4
H01,2013,10,12,4,0.003,0.047,0.008,0.3,0.005,0.019,24.8,77.1,WNW,1
H01,2013,10,12,5,0.002,0.036,0.009,0.2,0.009,0.023,24.7,71,NW,1.1
H01,2013,10,12,6,0.002,0.048,0.011,0.3,0.01,0.029,24.7,64.4,WNW,1.5
H01,2013,10,12,7,0.004,0.057,0.015,0.7,0.026,0.038,24.7,53.6,W,2.8
H01,2013,10,12,8,0.003,0.053,0.031,0.5,0.023,0.028,26.4,42.1,WNW,2.1
H01,2013,10,12,9,0.003,0.059,0.038,0.3,0.01,0.021,26.6,44.5,WNW,2
H01,2013,10,12,10,0.002,0.05,0.045,0.3,0.01,0.015,26.6,44.1,WNW,3.2
H01,2013,10,12,11,0.002,0.053,0.045,0.3,0.008,0.014,27,43,WNW,3.9
H01,2013,10,12,12,0.001,0.038,0.043,0.2,0.005,0.007,26.1,41.2,WNW,5.2
H01,2013,10,12,13,0,0.028,0.046,0.2,0.002,0.005,26.4,37.5,WNW,4.4
H01,2013,10,12,14,0,0.034,0.043,0.2,0.004,0.006,26.3,41.2,WNW,4.9
H01,2013,10,12,15,0.002,0.034,0.039,0.2,0.004,0.01,24.8,45.3,WNW,4.9
H01,2013,10,12,16,0.001,0.027,0.039,0.2,0.003,0.01,24.1,42.9,WNW,4.6
H01,2013,10,12,17,0.001,0.036,0.041,0.2,0.001,0.009,22.5,41.8,WNW,3.7
H01,2013,10,12,18,0,0.025,0.039,0.2,0.003,0.009,21.6,42,NNE,2.3
H01,2013,10,12,19,0,0.028,0.041,0.2,0.001,0.007,20.9,45,WNW,1.9
H01,2013,10,12,20,0,0.026,0.038,0.2,0,0.007,20.2,49.8,WNW,2.8
H01,2013,10,12,21,0.001,0.025,0.036,0.2,0,0.007,19.9,50.9,WNW,3.4
H01,2013,10,12,22,0.001,0.022,0.035,0.2,0,0.007,19.4,51.8,NW,1.2
H01,2013,10,12,23,0.001,0.016,0.032,0.3,0,0.01,19.1,53.2,NW,1
H01,2013,10,12,24,0.001,0.037,0.033,0.3,0,0.009,18.7,53,WNW,2.1
H01,2013,10,13,1,0.001,0.027,0.031,0.3,0,0.01,18.7,53.5,NNE,1
H01,2013,10,13,2,0.002,0.03,0.033,0.2,0,0.009,18.4,53.6,NNE,2.1
H01,2013,10,13,3,0.001,0.029,0.028,0.3,0,0.012,18.1,56.7,NNE,1.5
H01,2013,10,13,4,0.001,0.03,0.028,0.2,0,0.011,17.9,57.7,NNE,1.6
H01,2013,10,13,5,0.001,0.031,0.026,0.3,0,0.013,17.4,58.3,NE,1.5
H01,2013,10,13,6,0.001,0.037,0.026,0.2,0,0.01,17.4,56.3,NE,1.9
H01,2013,10,13,7,0.001,0.024,0.025,0.3,0.001,0.012,18.2,52.6,NNE,2.1
H01,2013,10,13,8,0,0.029,0.032,0.2,0.001,0.007,19.9,46.4,NE,3.8
H01,2013,10,13,9,0,0.021,0.036,0.2,0.001,0.005,21.3,41.2,NNE,3.2
H01,2013,10,13,10,0.001,0.027,0.039,0.2,0.001,0.005,21.9,39.9,NNE,2.5
H01,2013,10,13,11,0.001,0.014,0.042,0.2,0.001,0.004,23,37.6,NNE,2.7
H01,2013,10,13,12,0.001,0.017,0.044,0.2,0,0.004,24.2,36.5,NNE,3.5
H01,2013,10,13,13,0.001,0.025,0.045,0.2,0,0.004,26.1,33,N,2.2
H01,2013,10,13,14,0,0.026,0.045,0.2,0,0.003,26,31.3,NW,3.3
H01,2013,10,13,15,0.001,0.012,0.044,0.2,0,0.004,25.9,32.1,NNW,2.8
H01,2013,10,13,16,0.001,0.024,0.042,0.2,0,0.004,25.5,34.6,NW,2.7
H01,2013,10,13,17,0,0.031,0.042,0.2,0,0.005,24.4,36.9,WNW,3.3
H01,2013,10,13,18,0.001,0.035,0.039,0.3,0.001,0.006,23.3,40.7,NW,1.8
H01,2013,10,13,19,0.001,0.027,0.036,0.3,0,0.008,22.2,43.3,N,1.4
H01,2013,10,13,20,0.001,0.034,0.033,0.3,0,0.008,21.2,46.6,N,1.6
H01,2013,10,13,21,0.001,0.023,0.031,0.3,0,0.01,20.4,48.9,NNE,1
H01,2013,10,13,22,0.007,0.027,0.032,0.3,0,0.009,19.9,49.8,WNW,1.3
H01,2013,10,13,23,0.006,0.022,0.028,0.3,0,0.012,19.3,54.2,NNE,0.8
H01,2013,10,13,24,0.005,0.025,0.024,0.3,0.001,0.015,19,57.2,N,0.7
H01,2013,10,14,1,0.005,0.018,0.017,0.3,0.001,0.02,18.4,58.6,CALM,0.2
H01,2013,10,14,2,0.005,0.033,0.017,0.3,0.001,0.019,18,58.3,NNE,1.3
H01,2013,10,14,3,0.002,0.032,0.018,0.3,0,0.017,18.1,57.5,NE,2.3
H01,2013,10,14,4,0.001,0.021,0.017,0.3,0,0.014,18,56.2,NE,1.8
H01,2013,10,14,5,0.001,0.035,0.013,0.3,0.001,0.017,18.1,56.2,NE,1
H01,2013,10,14,6,0.001,0.015,0.008,0.3,0.002,0.02,16.9,64,CALM,0
H01,2013,10,14,7,0.002,0.026,0.004,0.3,0.022,0.028,17.9,60.1,NNE,0.7
H01,2013,10,14,8,0.002,0.033,0.01,0.4,0.015,0.025,19.6,52.2,ENE,1
H01,2013,10,14,9,0.001,0.032,0.015,0.3,0.009,0.021,20.7,51.1,NNW,0.5
H01,2013,10,14,10,0.002,0.025,0.012,0.4,0.023,0.026,22.5,49.1,NW,1
H01,2013,10,14,11,0.002,0.032,0.018,0.4,0.022,0.028,23.3,47.1,NNW,1.1
H01,2013,10,14,12,0.002,0.027,0.036,0.3,0.006,0.021,23.6,47.7,NE,1.3
H01,2013,10,14,13,0.003,0.043,0.042,0.3,0.005,0.02,24.2,49.3,NNE,1.3
H01,2013,10,14,14,0.004,0.039,0.05,0.4,0.003,0.017,25.3,47.4,S,3.5
H01,2013,10,14,15,0.002,0.023,0.051,0.2,0,0.008,25.5,49.9,S,2.3
H01,2013,10,14,16,0.001,0.022,0.05,0.2,0,0.007,24.9,49.4,S,1.8
H01,2013,10,14,17,0.002,0.024,0.046,0.2,0,0.01,23.8,55.5,S,1.7
H01,2013,10,14,18,0.002,0.038,0.043,0.3,0,0.013,23.2,61.1,S,1.6
H01,2013,10,14,19,0.002,0.031,0.037,0.3,0,0.017,22.4,65.3,SSE,1.4
H01,2013,10,14,20,0.002,0.03,0.035,0.3,0,0.018,21.6,68.2,ESE,0.9
H01,2013,10,14,21,0.002,0.024,0.029,0.3,0,0.017,21.2,67.7,E,1
H01,2013,10,14,22,0.001,0.034,0.021,0.4,0,0.02,20.3,70.4,ENE,1.5
H01,2013,10,14,23,0.001,0.036,0.021,0.4,0,0.018,19.7,73.2,ENE,1.3
H01,2013,10,14,24,0.001,0.027,0.02,0.3,0,0.017,18.8,75.9,ENE,0.9
H01,2013,10,15,1,0,0.032,0.016,0.3,0.002,0.017,18.3,77.8,ENE,0.6
H01,2013,10,15,2,0,0.033,0.007,0.4,0.003,0.024,18.9,78.9,ENE,0.6
H01,2013,10,15,3,0,0.029,0.004,0.4,0.003,0.027,19.5,78.8,ENE,0.9
H01,2013,10,15,4,0.001,0.028,0.01,0.3,0.001,0.023,19.8,71.8,ENE,0.8
H01,2013,10,15,5,0.001,0.033,0.008,0.3,0.003,0.025,20.2,68.6,NE,1.3
H01,2013,10,15,6,0.001,0.037,0.003,0.3,0.014,0.031,20.3,69.1,NE,0.9
H01,2013,10,15,7,0.001,0.041,0.001,0.4,0.039,0.035,20.4,69.9,ENE,0.6
H01,2013,10,15,8,0.001,0.045,0.002,0.5,0.053,0.034,21.2,68.8,NE,1.5
H01,2013,10,15,9,0.002,0.061,0.002,0.6,0.068,0.039,21.3,68.5,NE,0.8
H01,2013,10,15,10,0.001,0.056,0.002,0.6,0.074,0.046,20.3,73.2,NNE,0.8
H01,2013,10,15,11,0.001,0.054,0.003,0.6,0.053,0.04,20,78.6,NE,2.4
H01,2013,10,15,12,0.001,0.05,0.005,0.5,0.038,0.036,20.2,79.7,NE,1.5
H01,2013,10,15,13,0.001,0.038,0.005,0.5,0.028,0.037,19.5,81.2,NE,3.1
H01,2013,10,15,14,0.001,0.053,0.006,0.4,0.029,0.036,19.4,84.2,NE,2.2
H01,2013,10,15,15,0.001,0.034,0.003,0.4,0.044,0.037,***,***,***,***
H01,2013,10,15,16,0,0.041,0.004,0.5,0.032,0.036,***,***,***,***
H01,2013,10,15,17,0,0.038,0.002,0.5,0.029,0.037,***,***,***,***
H01,2013,10,15,18,0,0.049,0.003,0.5,0.019,0.032,***,***,***,***
H01,2013,10,15,19,0,0.03,0.003,0.4,0.014,0.03,***,***,***,***
H01,2013,10,15,20,0,0.029,0.01,0.4,0.004,0.023,***,***,***,***
H01,2013,10,15,21,0,0.019,0.019,0.3,0.001,0.017,***,***,***,***
H01,2013,10,15,22,0,0.018,0.034,0.2,0,0.009,***,***,***,***
H01,2013,10,15,23,0.002,0.023,0.035,0.2,0.002,0.009,***,***,***,***
H01,2013,10,15,24,0.001,0.01,0.038,0.2,0.003,0.008,***,***,***,***
H01,2013,10,16,1,***,0.007,0.04,***,***,***,***,***,***,***
H01,2013,10,16,2,0.001,0.019,0.041,0.2,***,***,***,***,***,***
H01,2013,10,16,3,0,0.011,0.044,0.2,0,0.005,***,***,***,***
H01,2013,10,16,4,0,0.024,0.045,0.2,0.001,0.005,***,***,***,***
H01,2013,10,16,5,0,0.022,0.043,0.2,0.001,0.005,***,***,***,***
H01,2013,10,16,6,0,0.02,0.04,0.2,0.002,0.01,***,***,***,***
H01,2013,10,16,7,0,0.023,0.038,0.2,0.003,0.012,***,***,***,***
H01,2013,10,16,8,0,0.019,0.035,0.2,0.006,0.015,***,***,***,***
H01,2013,10,16,9,0,0.021,0.035,0.2,0.006,0.011,***,***,***,***
H01,2013,10,16,10,0,0.014,0.035,0.2,0.009,0.013,***,***,***,***
H01,2013,10,16,11,0,0.021,0.037,0.2,0.007,0.01,***,***,***,***
H01,2013,10,16,12,0,0.023,0.04,0.2,0.005,0.009,***,***,***,***
H01,2013,10,16,13,0,0.023,0.039,0.2,0.004,0.008,***,***,***,***
H01,2013,10,16,14,0,0.023,0.038,0.2,0.006,0.008,***,***,***,***
H01,2013,10,16,15,0,0.021,0.033,0.2,0.009,0.01,21.6,48.3,S,5.9
H01,2013,10,16,16,0,0.018,0.029,0.2,0.006,0.011,20.5,49,SSW,3
H01,2013,10,16,17,0,0.024,0.027,0.2,0.007,0.01,18.7,51.9,S,3.5
H01,2013,10,16,18,0,0.015,0.027,0.2,0.004,0.009,17.5,53.1,S,3.8
H01,2013,10,16,19,0,0.018,0.029,0.3,0.003,0.008,17,53.8,S,3.1
H01,2013,10,16,20,0,0.017,0.03,0.2,0.002,0.006,16.5,56.8,S,3
H01,2013,10,16,21,0,0.022,0.029,0.2,0.001,0.006,16.3,56.7,S,2.7
H01,2013,10,16,22,0,0.028,0.027,0.2,0.001,0.008,15.9,57.8,W,1.9
H01,2013,10,16,23,0,0.019,0.027,0.2,0.001,0.008,15.5,54.6,S,1.8
H01,2013,10,16,24,0.001,0.022,0.026,0.2,0.001,0.009,15.1,54.7,WSW,1.9
H01,2013,10,17,1,0,0.018,0.028,0.2,0.001,0.007,15.1,54,S,2.4
H01,2013,10,17,2,0.001,0.013,0.025,0.2,0.001,0.008,14.7,59.1,WSW,1.4
H01,2013,10,17,3,0.001,0.022,0.022,0.2,0.002,0.012,14.8,60,SSW,1
H01,2013,10,17,4,0.001,0.03,0.023,0.1,0.002,0.01,14.6,60.6,SW,1.4
H01,2013,10,17,5,0.001,0.025,0.018,0.2,0.004,0.017,14.1,61.4,SW,1.3
H01,2013,10,17,6,0.001,0.025,0.011,0.2,0.01,0.024,13.9,61.9,W,1.2
H01,2013,10,17,7,0.001,0.023,0.012,0.2,0.014,0.026,14.6,56.9,W,2.3
H01,2013,10,17,8,0.001,0.025,0.015,0.3,0.019,0.023,16.1,47.4,W,2.2
H01,2013,10,17,9,0.001,0.028,0.022,0.2,0.012,0.016,17.4,38.7,W,3.9
H01,2013,10,17,10,0,0.02,0.023,0.2,0.015,0.017,18.4,34.7,W,3
H01,2013,10,17,11,0,0.033,0.022,0.3,0.022,0.02,20,31.9,WSW,2.2
H01,2013,10,17,12,0.001,0.014,0.023,0.2,0.023,0.025,20.6,26.9,SW,1.8
H01,2013,10,17,13,0,0.019,0.028,0.2,0.015,0.018,21.2,24.3,SSW,2.1
H01,2013,10,17,14,0,0.01,0.031,0.2,0.014,0.016,21.6,26.5,SSW,1.8
H01,2013,10,17,15,0.001,0.023,0.026,0.2,0.024,0.019,21.6,27.9,S,2.6
H01,2013,10,17,16,0.001,0.021,0.025,0.2,0.021,0.021,21.2,30.9,S,2.2
H01,2013,10,17,17,0.002,0.015,0.02,0.2,0.017,0.027,19.2,39.4,S,2.5
H01,2013,10,17,18,0.002,0.024,0.012,0.4,0.023,0.032,18.1,45.3,SSE,2.1
H01,2013,10,17,19,0.001,0.023,0.017,0.4,0.012,0.026,17.8,45,SSW,1.1
H01,2013,10,17,20,0.001,0.032,0.024,0.3,0.005,0.016,17.1,47.7,SW,1
H01,2013,10,17,21,0.001,0.014,0.023,0.3,0.002,0.015,16.4,51.2,WSW,0.7
H01,2013,10,17,22,0.001,0.022,0.02,0.3,0.003,0.016,15.9,53.8,SSW,0.6
H01,2013,10,17,23,0.001,0.014,0.017,0.2,0.002,0.017,15.7,54.8,WNW,1.1
H01,2013,10,17,24,0.001,0.028,0.018,0.2,0.002,0.015,15.6,54.3,SW,1
H01,2013,10,18,1,0.001,0.023,0.017,0.2,0.002,0.016,15.9,54,W,1.2
H01,2013,10,18,2,0.001,0.029,0.017,0.2,0.002,0.017,15.7,52.2,WNW,2.6
H01,2013,10,18,3,0.001,0.019,0.014,0.2,0.003,0.019,15.8,53.2,W,1.4
H01,2013,10,18,4,0.001,0.025,0.009,0.2,0.007,0.025,15.7,55,W,1.1
H01,2013,10,18,5,0.001,0.031,0.006,0.2,0.008,0.025,15.5,58.6,WSW,0.6
H01,2013,10,18,6,0.001,0.025,0.004,0.2,0.013,0.025,15.7,57,W,1.6
H01,2013,10,18,7,0.001,0.029,0.003,0.3,0.033,0.029,15.9,58.5,W,0.9
H01,2013,10,18,8,0.001,0.036,0.002,0.4,0.057,0.032,16.7,56.4,SSW,0.6
H01,2013,10,18,9,0.002,0.03,0.006,0.3,0.034,0.028,17.9,52.7,WNW,1.2
H01,2013,10,18,10,0.002,0.033,0.004,0.4,0.078,0.039,19,48.7,W,1.4
H01,2013,10,18,11,0.001,0.028,0.012,0.3,0.022,0.027,20,46.2,WNW,1.3
H01,2013,10,18,12,0.001,0.034,0.021,0.3,0.012,0.023,21.1,45.4,WNW,1.2
H01,2013,10,18,13,0.001,0.026,0.027,0.2,0.007,0.02,20.8,45.4,NE,0.7
H01,2013,10,18,14,0.001,0.032,0.026,0.2,0.007,0.021,20.6,46.7,NNE,0.8
H01,2013,10,18,15,0.002,0.038,0.018,0.3,0.022,0.034,20.4,48.2,S,1.5
H01,2013,10,18,16,0.005,0.043,0.006,0.6,0.053,0.06,20.3,51.7,SSW,0.7
H01,2013,10,18,17,0.003,0.052,0.004,0.5,0.044,0.054,19.9,52.9,ENE,1.1
H01,2013,10,18,18,0.005,0.052,0.001,0.7,0.038,0.057,19.5,57,S,1
H01,2013,10,18,19,0.003,0.042,0.005,0.5,0.022,0.048,19.4,56.2,S,1
H01,2013,10,18,20,0.002,0.042,0.006,0.5,0.012,0.043,19.2,57.5,SW,0.4
H01,2013,10,18,21,0.002,0.035,0.004,0.5,0.014,0.043,18.9,58.5,SW,0.3
H01,2013,10,18,22,0.003,0.055,0.001,0.6,0.026,0.047,17.9,71.4,CALM,0.2
H01,2013,10,18,23,0.002,0.044,0.001,0.6,0.022,0.042,17.9,77.8,SSW,0.8
H01,2013,10,18,24,0.002,0.045,0.002,0.5,0.014,0.037,16.8,81.1,W,0.5
H01,2013,10,19,1,0.001,0.05,0.001,0.5,0.014,0.037,17,81.2,N,0.5
H01,2013,10,19,2,0.001,0.048,0.001,0.6,0.017,0.034,16.8,85.4,CALM,0.2
H01,2013,10,19,3,0.001,0.037,0.001,0.5,0.011,0.029,16.5,86.7,WNW,1.2
H01,2013,10,19,4,0,0.038,0.002,0.4,0.003,0.022,16.8,83.7,W,1.7
H01,2013,10,19,5,0.001,0.042,0.002,0.4,0.013,0.029,16.8,79.6,WNW,1.9
H01,2013,10,19,6,0.001,0.042,0.006,0.3,0.005,0.022,15.9,86.2,WNW,1.5
H01,2013,10,19,7,0.001,0.036,0.003,0.4,0.022,0.028,16.2,87,WNW,1.3
H01,2013,10,19,8,0.001,0.027,0.003,0.4,0.024,0.025,15.9,88.2,WNW,1
H01,2013,10,19,9,0.001,0.042,0.004,0.4,0.016,0.024,16.6,87.2,NW,0.9
H01,2013,10,19,10,0.001,0.037,0.011,0.4,0.01,0.018,17.9,78.9,NW,1.3
H01,2013,10,19,11,0.001,0.033,0.015,0.4,0.011,0.02,20.4,72.5,WNW,1.6
H01,2013,10,19,12,0.001,0.036,0.023,0.3,0.011,0.023,20.3,61.5,SSW,0.9
H01,2013,10,19,13,0.001,0.038,0.023,0.4,0.009,0.026,20.4,62.4,W,1.6
H01,2013,10,19,14,0.001,0.033,0.025,0.3,0.008,0.024,21.1,60,W,1
H01,2013,10,19,15,0.001,0.033,0.028,0.3,0.005,0.019,21,55.7,W,1
H01,2013,10,19,16,0.001,0.033,0.032,0.3,0.001,0.016,20.7,57,CALM,0.2
H01,2013,10,19,17,0.001,0.029,0.027,0.3,0.001,0.019,20,63.8,NE,1.2
H01,2013,10,19,18,0.002,0.04,0.01,0.5,0.007,0.037,19.8,68.4,SSE,0.9
H01,2013,10,19,19,0.008,0.043,0.013,0.5,0.01,0.035,19.8,68.8,SE,1
H01,2013,10,19,20,0.006,0.043,0.013,0.7,0.007,0.034,19.4,70,S,1.5
H01,2013,10,19,21,0.004,0.055,0.016,0.5,0.005,0.028,18.9,75.9,SSE,0.9
H01,2013,10,19,22,0.006,0.035,0.017,0.4,0.002,0.024,18.1,79.7,S,1.3
H01,2013,10,19,23,0.003,0.041,0.013,0.4,0.002,0.026,17.5,83.8,S,0.9
H01,2013,10,19,24,0.003,0.05,0.014,0.4,0.001,0.021,17.6,83.3,S,1.2
H01,2013,10,20,1,0.001,0.052,0.012,0.4,0.002,0.02,17.2,88.5,S,0.4
H01,2013,10,20,2,0.001,0.045,0.007,0.5,0.001,0.023,16.9,90.1,W,0.5
H01,2013,10,20,3,0.001,0.027,0.012,0.4,0.001,0.018,16.3,90.1,W,2
H01,2013,10,20,4,0.001,0.029,0.008,0.4,0.001,0.018,16.7,91.8,W,1.8
H01,2013,10,20,5,0,0.026,0.008,0.3,0.001,0.014,16.3,91.8,WNW,3.8
H01,2013,10,20,6,0,0.02,0.015,0.2,0.001,0.01,16.2,92.6,W,2.2
H01,2013,10,20,7,0,0.022,0.009,0.2,0.002,0.01,16.1,93.2,W,1.3
H01,2013,10,20,8,0,0.027,0.007,0.3,0.003,0.012,15.9,93.5,W,2.6
H01,2013,10,20,9,0,0.018,0.011,0.2,0.003,0.011,15.8,93.7,SSW,0.9
H01,2013,10,20,10,0,0.026,0.016,0.2,0.002,0.012,15.9,94,WSW,1.7
H01,2013,10,20,11,0,0.025,0.015,0.2,0.003,0.013,15.9,94.2,W,1.7
H01,2013,10,20,12,0,0.025,0.017,0.2,0.002,0.012,16.3,94.4,W,2.4
H01,2013,10,20,13,0,0.02,0.014,0.3,0.003,0.015,16.5,94.6,W,2.8
H01,2013,10,20,14,0,0.013,0.015,0.3,0.003,0.015,16.5,94.6,SW,1.1
H01,2013,10,20,15,0,0.014,0.014,0.4,0.003,0.017,16.9,94.7,W,1.4
H01,2013,10,20,16,0,0.021,0.017,0.4,0.002,0.014,16.9,94.7,WNW,2.4
H01,2013,10,20,17,0,0.039,0.012,0.4,0.003,0.018,17.1,94.8,S,2.2
H01,2013,10,20,18,0,0.02,0.01,0.4,0.003,0.021,17.3,94.8,SSW,0.3
H01,2013,10,20,19,0,0.03,0.008,0.5,0.004,0.023,17.5,94.9,W,0.3
H01,2013,10,20,20,0.001,0.021,0.007,0.5,0.003,0.025,17.5,95,S,0.5
H01,2013,10,20,21,0.001,0.023,0.003,0.5,0.004,0.029,17.5,95,S,0.9
H01,2013,10,20,22,0.001,0.029,0.001,0.6,0.009,0.031,17.5,95.1,S,0.7
H01,2013,10,20,23,0.001,0.025,0.001,0.5,0.011,0.029,17.5,95.2,CALM,0.1
H01,2013,10,20,24,0.001,0.024,0.003,0.5,0.005,0.026,17.4,95.2,WNW,1.9
H01,2013,10,21,1,0.001,0.034,0.003,0.4,0.006,0.023,16.5,95,CALM,0.1
H01,2013,10,21,2,0.002,0.025,0.001,0.5,0.021,0.027,16.5,95.1,S,1.6
H01,2013,10,21,3,0.002,0.029,0,0.4,0.014,0.023,16.2,95.2,CALM,0
H01,2013,10,21,4,0.005,0.022,0.001,0.4,0.02,0.022,16.3,95.3,NW,0.5
H01,2013,10,21,5,0.002,0.029,0.001,0.5,0.033,0.021,15.5,95.2,CALM,0.1
H01,2013,10,21,6,0.001,0.023,0.001,0.5,0.044,0.02,15.1,95.2,CALM,0.1
H01,2013,10,21,7,0.001,0.043,0.001,0.6,0.109,0.026,16.3,95.4,CALM,0.2
H01,2013,10,21,8,0.002,0.032,0.002,0.6,0.068,0.027,18.5,95.6,WNW,1.8
H01,2013,10,21,9,0.002,0.044,0.006,0.5,0.037,0.027,20.7,95.5,WSW,1
H01,2013,10,21,10,0.002,0.036,0.008,0.4,0.046,0.031,22,66.5,S,1.6
H01,2013,10,21,11,0.002,0.034,0.015,0.4,0.033,0.03,23.4,60.1,S,1
H01,2013,10,21,12,0.002,0.025,0.022,0.4,0.021,0.028,24.3,57.2,WSW,0.9
H01,2013,10,21,13,0.001,0.028,0.032,0.3,0.014,0.022,25.7,53,S,1.4
H01,2013,10,21,14,0.005,0.032,0.022,0.4,0.035,0.038,26,56.2,SSE,1.1
H01,2013,10,21,15,0.009,0.033,0.015,0.5,0.046,0.049,26,56.2,SSE,2.2
H01,2013,10,21,16,0.011,0.043,0.012,0.6,0.052,0.059,25,58.3,SE,1.8
H01,2013,10,21,17,0.011,0.037,0.01,0.5,0.04,0.054,24.7,55.4,S,2.1
H01,2013,10,21,18,0.002,0.026,0.017,0.4,0.02,0.03,23.2,60.1,S,1.3
H01,2013,10,21,19,0.001,0.032,0.004,0.5,0.032,0.04,21.8,66.9,CALM,0.2
H01,2013,10,21,20,0.001,0.025,0.009,0.5,0.013,0.033,21.3,70.1,CALM,0.2
H01,2013,10,21,21,0.002,0.021,0.016,0.3,0.003,0.022,20.9,72,W,1
H01,2013,10,21,22,0.001,0.047,0.011,0.4,0.002,0.024,19.4,76.8,CALM,0.2
H01,2013,10,21,23,0.001,0.032,0.004,0.5,0.01,0.031,19,81.4,CALM,0
H01,2013,10,21,24,0.001,0.03,0.002,0.6,0.033,0.035,19.9,79.8,S,0.8
H01,2013,10,22,1,0.001,0.02,0.007,0.4,0.008,0.029,19.8,75.9,SSE,0.5
H01,2013,10,22,2,0.001,0.027,0.006,0.4,0.005,0.028,19.1,78.9,WNW,1.3
H01,2013,10,22,3,0.001,0.021,0.001,0.5,0.033,0.033,18.8,81.9,CALM,0.2
H01,2013,10,22,4,0.001,0.024,0.001,0.4,0.024,0.032,19.1,80.2,WNW,0.8
H01,2013,10,22,5,0.002,0.029,0.003,0.3,0.016,0.031,18.8,79.8,S,1.5
H01,2013,10,22,6,0.003,0.043,0.001,0.4,0.039,0.03,18.4,82.9,SSW,0.4
H01,2013,10,22,7,0.002,0.034,0.001,0.5,0.06,0.031,18.7,81.3,WSW,0.5
H01,2013,10,22,8,0.002,0.03,0.001,0.5,0.072,0.032,19.5,76.3,S,0.7
H01,2013,10,22,9,0.003,0.038,0.001,0.6,0.076,0.036,19.8,73.6,S,0.5
H01,2013,10,22,10,0.006,0.034,0.002,0.5,0.076,0.039,20.3,72.2,CALM,0.2
H01,2013,10,22,11,0.012,0.043,0.002,0.6,0.099,0.042,21.1,69.6,ESE,0.7
H01,2013,10,22,12,0.014,0.032,0.002,0.6,0.091,0.038,20.7,72,E,1.9
H01,2013,10,22,13,0.01,0.038,0.003,0.7,0.081,0.049,21.3,72,E,1.8
H01,2013,10,22,14,0.004,0.044,0.008,0.4,0.024,0.029,21.2,74.1,NW,0.4
H01,2013,10,22,15,0.013,0.043,0.004,0.8,0.064,0.041,21.6,72.5,SE,0.8
H01,2013,10,22,16,0.016,0.033,0.002,0.9,0.081,0.047,21.2,77.6,SE,1.7
H01,2013,10,22,17,0.007,0.043,0.003,0.7,0.045,0.04,20.5,80.3,NNW,0.3
H01,2013,10,22,18,0.005,0.031,0.004,0.6,0.02,0.036,20.3,81.7,NNE,0.8